Location: Batesville
(34.7480°N, 83.6110°W)
Time: 07:57:54
(UTC-04:00)

Envisat - Pass Details

Date: 22 January 2018
Orbit: 764 x 766 km, 98.2° (Epoch: 20 May)

Event Time Altitude Azimuth Distance (km) Brightness Sun altitude
Exits shadow 19:14:14 11° 24° (NNE) 2,252 5.1 -16.6°
Drops below altitude 10° 19:14:26 10° 23° (NNE) 2,304 5.1 -16.6°
Sets 19:17:19 0° 6° (N) 3,234 6.1 -17.2°
